ISS OBJECT XW

Last updated on Sun Apr 12 2026 00:02:13 GMT+0000 (Coordinated Universal Time)

1 66910U 98067XW 26100.63683371 .00233282 00000+0 11321-2 0 9997 2 66910 51.6198 261.4188 0008695 283.5098 76.4935 15.81200748 20212

Satellite not in orbit

ISS OBJECT XW